Wind_Speed
17 17 20 25 26 25 25 24 24 23 23 28 33 33 31 31 30 27 26 25 22 20 19 17 17 16 16 16 15 14 13 13 13 14 15 16 17 17 16 15 15 15 14 15 16 15 15 15 16 16 15 13 14 14 14 13 12 13 13 13 13 11 10 10 9 7 7 7 6 7 7 7 9 8 9 9 9 9 10 10 10 10 10 9 9
20 20 24 28 27 25 26 26 24 23 24 29 32 29 29 30 29 27 25 24 21 20 19 18 17 17 16 15 14 13 13 13 14 14 15 15 16 16 16 16 16 16 16 16 16 16 16 16 16 15 14 13 13 14 14 13 13 14 14 14 14 13 10 11 10 6 5 6 5 6 7 7 9 9 9 10 10 10 10 10 10 10 10 10 10
19 21 25 28 27 26 27 28 26 25 25 29 31 28 28 30 28 26 23 22 21 21 19 18 18 17 15 14 13 12 12 13 14 16 16 15 16 17 17 17 17 17 17 17 17 17 17 16 15 15 15 15 15 15 15 15 14 15 15 14 15 14 12 10 9 7 6 6 7 8 8 8 9 10 10 11 11 11 11 11 11 11 11 11 11
21 22 24 26 27 27 28 29 28 26 26 29 31 28 29 30 27 26 23 21 21 21 20 20 19 17 16 15 13 12 12 12 15 17 17 17 17 18 17 17 17 17 18 18 18 17 16 15 15 15 15 15 16 16 16 16 16 15 15 16 16 15 13 11 10 9 8 7 8 9 9 9 10 12 12 12 12 11 12 12 11 12 12 12 11
23 23 25 27 27 27 28 30 29 28 28 29 29 28 29 29 27 27 26 24 23 22 21 21 20 18 17 15 14 13 13 13 14 16 17 18 18 18 17 17 18 18 18 18 17 16 15 15 15 15 15 15 15 15 16 16 16 15 16 17 17 16 15 13 11 10 9 8 9 10 11 11 11 13 14 13 13 12 12 12 12 13 13 12 11
22 20 22 25 27 28 30 31 30 30 30 30 29 29 30 30 29 29 28 27 26 23 21 22 21 19 18 16 15 15 14 13 14 15 17 17 18 18 18 19 20 19 19 18 18 17 16 16 15 15 15 15 14 15 16 16 16 16 17 18 19 18 17 15 12 11 10 10 11 11 12 12 12 12 13 13 12 12 12 13 13 14 13 13 12
20 17 19 21 25 30 31 31 31 31 31 31 30 30 31 31 31 30 28 27 26 23 22 23 22 20 18 17 16 15 14 13 13 14 16 17 17 18 18 19 20 20 20 20 19 18 18 18 17 17 16 15 15 15 16 17 17 18 18 19 20 20 18 15 13 12 11 12 12 12 12 12 12 11 12 13 13 13 14 14 14 13 14 13 13
20 19 19 19 22 28 31 31 32 33 33 32 30 30 31 31 32 31 26 25 26 26 24 24 22 20 18 16 15 14 14 14 13 14 15 15 16 16 17 18 19 19 20 19 19 19 19 19 19 18 17 16 16 16 16 17 18 18 18 18 19 19 18 16 15 14 13 12 13 14 13 11 11 10 11 13 13 12 13 14 14 13 14 15 14
20 22 23 22 23 27 30 31 32 34 34 33 31 30 32 32 32 31 26 25 27 28 26 24 22 20 18 15 14 14 14 15 15 15 14 14 14 15 15 17 17 17 18 17 17 18 19 20 20 19 19 18 17 17 17 18 18 18 18 18 18 18 17 16 16 16 15 14 14 15 14 11 10 10 10 11 12 12 14 15 14 14 15 17 16
19 20 22 25 25 28 31 31 32 35 36 34 33 32 32 33 32 31 28 29 30 29 28 26 23 21 19 15 14 15 15 15 14 14 14 14 14 15 16 16 16 17 17 16 16 16 18 20 21 21 20 20 18 18 19 19 18 18 18 18 18 17 17 17 18 19 17 14 14 14 14 12 11 10 10 10 11 13 15 16 15 16 18 19 18
19 19 21 24 26 28 31 32 32 34 37 37 35 33 33 34 33 31 32 33 32 31 31 29 25 23 20 16 14 15 15 14 13 13 13 13 13 14 15 15 15 17 17 16 16 16 18 19 20 21 22 21 20 20 20 21 20 18 17 18 18 19 19 19 20 19 16 13 13 13 13 13 13 12 12 12 13 14 16 17 17 18 19 20 19
16 18 20 22 23 26 29 30 30 33 37 37 36 34 34 35 34 33 35 36 34 32 32 31 28 25 20 16 15 15 15 14 13 12 12 12 13 14 15 15 15 16 16 16 16 16 17 19 20 21 21 21 20 19 18 20 21 19 18 19 19 19 20 20 21 19 16 15 16 15 15 15 15 16 16 16 17 17 18 19 19 20 20 22 22
11 14 17 19 20 22 26 27 28 31 35 36 35 35 34 36 37 36 37 38 37 34 33 32 30 26 21 17 15 15 15 14 13 12 12 12 14 15 15 16 16 16 17 17 17 16 16 18 20 21 21 20 19 17 16 18 19 19 19 20 19 19 19 20 20 20 18 18 19 19 19 18 18 19 20 21 21 21 22 22 22 23 24 25 25
12 11 13 15 16 17 20 23 24 27 32 35 36 36 35 36 38 38 39 39 37 35 33 31 30 28 23 19 17 16 16 15 14 13 13 14 15 16 16 17 16 16 17 17 17 16 16 17 19 20 20 20 19 18 17 18 18 18 19 20 20 21 21 20 21 20 19 20 20 21 22 21 21 22 22 24 25 26 27 27 27 28 29 30 30
15 14 11 11 12 14 16 19 20 24 28 31 33 34 34 35 37 38 40 39 37 35 33 31 32 30 24 19 17 18 18 17 16 16 15 16 16 16 17 17 16 16 17 17 16 15 15 16 18 19 20 20 19 18 18 18 18 18 19 20 21 22 21 21 21 21 21 22 22 23 24 25 25 26 26 27 28 29 30 30 31 32 33 34 34
15 15 12 9 7 8 14 16 17 22 25 27 30 32 32 33 37 39 40 38 36 36 33 32 34 34 27 21 20 20 20 20 20 19 18 17 18 18 17 17 17 16 17 17 16 15 16 17 17 18 19 20 19 19 19 18 18 18 19 20 21 22 22 22 23 23 23 24 24 25 26 27 28 29 29 30 31 32 32 33 33 35 37 38 37
16 14 12 10 7 8 15 16 15 19 22 24 27 29 29 32 37 41 41 39 37 35 33 33 36 36 32 27 23 22 23 24 23 22 20 19 20 20 19 19 18 17 18 18 17 15 15 17 17 17 17 18 18 19 19 19 18 18 18 19 20 21 22 23 23 24 24 25 25 26 26 27 27 28 30 31 32 33 34 35 36 37 38 40 40
17 15 12 10 10 12 15 14 15 19 22 23 25 27 29 33 36 37 38 37 36 34 33 33 35 36 36 33 28 26 27 27 26 24 22 20 22 23 22 22 21 19 18 17 16 15 15 16 17 17 16 17 16 17 17 18 18 18 18 18 19 19 20 21 22 23 23 24 25 25 26 27 27 28 30 31 33 34 35 36 37 38 40 41 42
16 14 11 9 12 13 13 16 21 24 23 24 26 28 31 34 35 34 33 34 35 34 32 31 33 35 36 35 32 30 29 29 27 25 24 24 24 25 25 24 22 20 18 16 15 14 13 13 14 15 15 16 16 16 17 17 17 18 18 19 20 20 21 22 22 23 24 25 25 26 27 28 29 30 31 33 34 35 37 38 39 40 42 43 44
12 11 10 9 11 13 16 20 27 30 28 26 25 27 31 34 33 32 32 32 35 36 34 33 34 34 34 35 35 32 30 30 29 27 27 27 27 26 25 24 22 20 18 17 16 15 14 14 14 15 15 15 16 17 18 19 19 19 19 20 21 22 23 23 24 24 25 26 27 28 28 29 30 31 33 34 35 37 39 40 41 43 44 45 46
12 9 7 8 8 10 14 20 26 31 34 32 28 26 29 32 33 33 34 34 34 35 36 37 37 35 34 35 35 33 32 31 30 30 30 29 28 27 26 24 22 20 20 19 18 18 17 17 16 16 17 17 18 19 20 20 20 20 21 22 22 23 24 25 25 26 26 27 29 30 31 32 33 34 35 37 38 40 41 43 44 46 47 48 49
13 10 8 6 6 8 11 14 18 24 30 33 30 28 29 33 34 34 34 33 34 34 35 36 35 32 33 35 35 34 34 33 33 32 31 30 30 29 28 25 23 22 22 21 21 21 20 19 19 19 19 19 19 19 20 20 21 21 22 23 24 25 26 27 28 28 29 31 32 33 34 35 36 37 39 40 41 43 44 46 47 48 50 51 52
14 12 11 8 6 6 9 13 16 18 22 26 28 29 30 32 33 33 32 33 35 35 35 34 34 33 33 33 33 34 34 34 33 33 33 33 33 31 28 26 24 23 23 23 22 21 21 20 20 19 19 19 19 20 20 21 22 22 24 25 26 27 28 29 30 31 33 34 35 36 37 38 39 40 41 42 44 45 46 48 49 49 50 51 52
13 12 13 12 9 6 6 8 12 16 19 21 24 27 28 29 30 32 33 33 33 36 38 37 36 36 33 30 29 30 30 30 30 30 30 30 29 27 26 25 24 23 23 22 21 21 20 20 19 18 18 19 19 20 21 22 23 24 26 27 28 29 30 31 32 33 34 35 36 37 38 39 40 41 41 42 43 44 45 46 47 47 47 48 48
12 11 11 11 10 8 6 5 6 10 14 17 21 22 24 24 25 26 27 26 28 34 38 38 38 38 36 33 29 28 28 28 28 27 26 25 24 24 24 25 25 24 24 24 22 21 20 19 18 18 19 19 20 21 22 23 25 26 27 28 29 30 31 32 33 34 35 36 36 37 37 37 37 37 38 38 39 39 40 41 42 43 43 43 44
8 8 7 6 6 6 6 5 5 5 8 12 16 19 22 24 24 24 25 25 26 30 32 32 32 33 33 31 29 28 28 28 27 27 26 25 26 26 25 25 24 22 22 21 20 19 18 18 18 18 19 20 21 22 23 25 26 27 28 29 30 31 31 32 32 33 33 33 33 33 32 32 32 33 33 34 35 36 37 37 38 38 39 39 39
4 4 3 2 1 1 1 2 2 2 3 6 10 14 18 21 22 22 23 24 24 25 25 24 24 26 26 26 27 27 27 26 25 25 25 24 23 22 20 19 18 17 16 16 16 17 17 18 19 20 20 21 23 24 25 27 28 29 29 29 30 30 30 29 29 29 29 29 29 29 29 29 29 30 30 30 31 33 34 35 35 35 35 36 36
4 3 2 2 2 1 1 1 1 1 2 3 5 8 11 14 16 17 19 20 20 20 20 20 20 21 22 23 24 25 23 22 21 20 19 18 17 17 16 15 14 14 15 15 16 17 18 19 20 21 22 23 24 25 26 27 27 27 27 27 27 26 26 26 26 25 25 26 26 26 27 27 28 29 29 30 31 32 33 34 34 35 35 36 36
4 4 3 2 1 1 1 1 2 2 2 3 4 5 7 8 10 11 13 15 15 16 16 16 16 16 16 17 19 20 19 18 17 15 14 14 14 14 13 12 13 14 15 16 17 18 19 20 20 21 22 23 23 24 24 24 24 24 23 23 22 22 22 22 23 23 24 24 25 26 26 27 28 29 30 31 31 32 33 34 35 35 36 37 37
4 4 4 3 1 1 1 2 2 3 3 4 4 4 5 5 6 6 7 8 9 10 10 11 12 12 12 12 13 13 13 12 12 12 12 12 12 12 11 12 13 14 16 17 18 19 20 20 21 21 21 21 22 22 22 21 21 20 19 19 19 19 20 21 22 23 23 24 25 26 27 27 28 29 30 31 32 33 33 34 34 35 35 36 36
3 3 3 3 2 1 1 2 2 2 3 3 3 4 5 5 5 5 5 5 5 5 5 6 6 7 9 9 10 10 10 10 11 11 11 12 11 12 12 13 14 15 17 18 19 20 20 21 21 20 20 20 19 19 18 17 17 17 16 17 18 19 20 21 22 23 23 24 25 26 27 28 29 30 31 32 32 33 33 34 34 34 33 33 34
3 3 3 3 3 3 2 3 3 3 4 4 4 4 4 4 5 5 5 5 5 4 4 4 4 5 6 7 8 9 10 10 10 10 11 11 11 12 12 13 15 16 17 18 19 19 19 19 19 19 18 17 17 15 15 14 14 15 16 17 18 19 20 21 21 22 23 24 25 26 27 28 29 30 31 32 33 34 35 35 35 34 33 32 32
4 4 5 4 4 4 4 4 4 5 5 6 6 6 5 5 5 6 6 5 5 5 5 5 5 6 6 7 8 9 10 10 11 11 11 11 12 12 13 14 15 16 17 17 17 17 17 17 17 16 16 15 14 13 13 14 15 16 17 18 19 20 20 21 22 23 23 24 25 26 27 28 29 30 31 32 33 34 34 34 34 34 33 32 31
5 6 7 6 5 6 7 6 6 6 7 7 7 7 7 7 7 7 7 7 7 7 7 7 7 7 8 10 11 11 11 11 11 11 11 11 12 13 14 15 15 16 15 15 15 15 15 15 14 14 13 13 13 13 14 15 16 17 18 19 19 20 21 21 22 23 24 25 26 27 28 29 29 30 30 30 30 31 31 32 32 33 32 32 32
7 8 9 7 6 8 9 8 8 9 10 9 9 9 9 9 9 9 9 8 8 7 7 8 8 9 11 12 12 12 11 11 11 11 11 11 12 13 14 15 16 15 14 13 13 13 13 13 13 12 12 12 13 13 14 15 16 17 18 18 19 20 21 21 22 23 24 25 26 27 27 28 28 27 28 28 29 29 30 30 31 31 31 31 31
9 10 11 9 8 8 10 10 10 12 13 12 11 10 10 10 10 10 10 9 9 8 9 9 10 12 13 14 13 13 12 12 11 11 11 12 12 13 14 15 15 14 13 12 12 12 12 12 12 12 12 13 13 14 15 15 16 17 18 18 19 20 21 22 22 23 23 24 25 25 25 25 25 26 27 28 28 29 29 29 29 28 28 28 27
10 11 11 11 9 9 10 11 11 12 13 13 12 11 11 12 12 11 11 10 9 9 9 11 12 14 15 15 14 14 13 13 12 12 12 12 13 14 14 14 13 13 12 11 11 11 12 12 12 12 13 13 13 14 15 15 16 17 18 18 19 20 21 21 21 22 22 22 22 22 23 23 24 25 26 27 27 27 27 26 26 25 24 23 22
11 11 11 11 11 11 11 10 9 9 10 11 11 11 12 14 14 12 11 10 9 8 9 11 12 14 16 16 15 14 13 13 12 12 12 13 14 14 13 12 11 11 10 10 10 11 11 12 12 13 13 13 14 14 15 16 17 17 18 18 19 19 20 20 20 20 20 20 21 21 22 23 24 24 24 24 24 24 24 23 22 21 20 19 17
9 10 10 11 11 12 12 10 7 7 8 10 11 12 14 15 15 13 12 11 10 8 9 10 11 12 14 14 13 12 11 11 11 12 13 13 13 12 11 10 10 10 11 11 11 11 12 12 12 12 13 13 13 14 15 16 17 17 17 18 18 18 18 18 18 18 19 19 20 21 22 22 22 22 22 22 22 22 22 22 20 19 18 16 15
6 7 10 11 11 11 11 10 9 8 9 10 11 13 14 16 16 14 13 12 11 10 11 11 11 11 12 13 12 11 10 10 10 12 13 12 11 11 10 10 10 11 11 11 11 11 11 11 11 11 12 12 13 14 15 16 16 16 16 17 16 16 16 16 16 17 17 18 19 20 21 21 21 21 22 22 22 22 21 20 18 17 16 15 14
6 5 8 9 9 8 9 9 10 10 11 11 11 12 14 15 16 14 14 13 13 12 12 13 12 12 13 14 13 12 11 10 11 12 13 12 11 11 11 11 11 11 11 11 11 10 10 11 10 11 11 12 13 14 14 15 15 15 15 15 14 14 14 14 15 15 17 18 19 20 20 20 20 21 22 22 22 20 19 18 16 15 13 12 12
6 6 8 8 7 6 6 7 8 9 10 11 12 12 12 13 13 13 13 14 14 13 13 13 13 14 14 14 13 12 11 10 10 12 13 12 11 11 11 11 11 11 10 10 9 9 9 9 9 10 11 11 12 13 13 13 13 13 13 13 13 13 13 13 14 15 17 18 19 19 19 19 20 21 21 20 19 17 16 15 14 13 12 10 9
5 5 6 7 6 5 5 6 7 7 8 10 12 12 11 11 11 12 13 14 15 14 13 13 13 14 14 13 12 12 11 11 11 12 13 12 12 12 12 11 10 10 9 8 8 8 8 8 8 9 10 11 11 11 11 11 11 11 11 11 11 11 12 12 14 16 18 19 18 18 18 19 19 19 18 17 16 15 14 13 12 12 11 10 8
4 4 5 6 6 5 5 7 8 8 9 10 12 12 12 11 11 12 13 14 15 15 14 13 13 14 14 13 13 13 12 12 12 12 13 13 12 12 11 10 9 8 7 7 7 7 7 7 7 8 9 9 9 9 10 10 10 10 10 10 10 10 11 13 15 17 18 18 17 17 17 17 18 17 16 14 14 13 12 12 12 11 11 10 8
5 6 8 8 7 5 6 9 11 10 9 10 11 11 11 12 12 12 13 14 15 15 15 14 13 13 14 14 14 13 13 13 13 12 12 12 11 10 9 8 7 6 6 6 6 5 5 6 6 6 7 8 8 9 9 9 9 9 9 9 10 11 13 14 16 17 17 16 15 15 15 15 16 15 14 13 13 12 12 11 11 11 11 10 9
6 8 9 10 8 7 8 10 12 11 10 10 10 11 11 12 12 13 13 13 14 14 14 14 13 13 13 13 14 14 14 13 13 12 11 10 9 8 7 6 5 5 4 4 4 4 4 5 5 5 6 7 8 8 8 8 8 8 8 9 11 13 14 15 16 16 15 14 14 13 14 14 14 14 13 13 12 12 12 12 12 11 11 11 10
7 9 10 11 12 12 11 10 11 11 11 11 11 11 11 12 12 12 12 12 12 13 13 13 13 13 12 12 13 14 14 13 12 11 10 9 8 7 6 5 4 3 2 2 3 4 4 5 5 5 5 6 6 6 6 7 7 8 9 11 12 14 15 15 15 14 14 13 12 12 12 13 13 12 12 12 12 12 12 12 12 11 11 10 9
8 10 11 12 14 14 12 10 10 10 12 12 12 12 12 12 11 11 11 11 10 10 11 11 12 12 11 12 13 14 13 12 11 11 9 8 7 5 4 3 2 1 1 1 2 3 4 4 5 5 5 5 6 6 7 7 8 9 11 12 13 14 15 14 13 13 12 11 11 11 11 11 11 11 11 11 12 12 12 12 12 11 11 9 8
10 10 11 13 14 13 10 9 9 11 12 13 13 13 13 13 12 11 10 9 8 7 8 9 10 10 11 11 13 13 12 12 11 10 8 7 6 5 4 3 2 2 1 1 1 2 3 4 5 5 6 6 7 7 8 8 9 11 12 13 14 15 14 13 12 11 10 9 9 9 9 10 10 10 10 11 11 11 11 11 11 11 10 9 8
11 11 12 13 14 12 9 9 11 14 14 14 14 13 13 12 11 10 9 8 6 5 5 7 8 9 10 11 11 11 11 11 10 9 8 7 6 6 5 5 5 4 3 2 2 3 3 4 4 5 6 7 8 8 9 10 11 12 13 14 14 14 13 12 10 9 8 7 7 7 7 8 8 8 9 10 10 10 10 10 10 10 10 9 9
11 12 12 13 14 13 11 11 13 16 15 14 13 13 13 12 10 9 7 7 5 4 4 6 7 8 10 11 11 11 11 11 11 10 10 9 8 8 7 7 6 6 5 4 4 4 3 4 4 5 6 7 8 9 10 11 12 12 13 13 13 12 11 10 9 8 7 6 6 6 6 6 7 7 8 9 9 9 9 9 8 8 8 8 8
Wind_Direction
234 238 241 244 248 246 239 234 239 243 236 229 227 222 215 208 202 201 205 209 209 208 210 212 212 210 209 209 213 216 214 211 211 211 211 213 216 217 219 220 220 220 220 219 222 223 220 218 220 225 228 224 221 225 226 222 218 218 219 219 219 219 220 215 202 190 191 198 224 242 238 231 229 235 244 250 258 266 268 263 253 248 243 237 235
234 236 235 236 243 241 234 232 233 237 238 237 234 228 222 216 202 194 200 206 207 208 209 210 209 206 205 206 208 211 208 204 206 208 209 211 214 216 218 219 220 219 219 219 220 221 217 215 217 223 229 230 225 224 226 224 217 214 215 216 220 222 219 213 211 212 202 196 228 262 257 239 232 236 243 249 256 263 262 253 243 238 235 234 235
229 230 227 229 237 236 231 231 232 234 237 238 236 229 225 221 203 190 196 202 204 208 208 206 206 204 202 204 206 208 206 201 202 208 212 212 216 219 221 222 221 220 221 221 221 220 218 216 218 222 226 229 227 224 224 222 215 215 216 217 221 222 220 223 228 233 227 219 236 258 258 247 239 240 244 249 257 261 257 248 240 235 232 231 233
219 217 219 224 233 234 232 232 232 233 235 237 236 229 225 222 204 190 196 200 202 209 207 201 202 203 203 204 207 209 209 203 200 207 213 215 218 222 223 223 223 222 222 223 223 223 220 218 220 221 222 225 225 222 223 220 214 215 216 217 221 221 222 231 235 236 239 237 241 248 250 251 252 251 250 251 255 258 254 248 242 237 233 231 233
225 220 221 226 230 231 232 233 232 231 233 237 237 232 228 225 209 195 198 203 205 208 206 200 200 204 204 206 211 213 214 210 205 209 216 218 221 224 223 223 225 224 224 224 225 223 221 220 221 221 221 224 223 220 220 220 216 213 213 218 222 221 225 233 231 230 238 240 243 248 252 261 269 267 260 253 252 255 254 249 244 240 238 236 237
239 233 231 234 235 234 234 234 232 231 232 234 235 232 229 227 217 201 197 202 206 206 204 202 202 204 206 208 212 214 217 218 212 213 218 221 224 225 222 222 225 224 224 226 226 223 222 221 221 221 222 225 225 220 216 217 217 214 212 218 223 221 225 235 233 229 233 236 244 252 258 268 280 278 266 254 251 252 251 250 245 242 242 242 241
251 245 239 240 241 239 238 237 236 235 234 232 231 230 228 228 223 210 198 198 203 205 204 204 203 204 206 209 213 215 218 220 216 214 220 223 226 226 223 223 225 225 225 226 226 224 222 222 221 221 222 225 227 224 217 215 218 217 213 217 223 221 224 234 236 231 232 239 247 254 261 271 280 275 258 248 248 246 244 248 249 248 250 248 244
260 252 242 238 239 238 237 237 238 239 237 233 232 230 228 227 224 215 202 195 201 205 206 206 205 204 204 208 214 217 217 217 215 213 217 222 225 227 227 226 227 228 228 227 226 224 223 224 223 223 223 223 224 224 219 215 216 217 217 218 221 221 223 231 233 231 235 243 250 256 263 270 275 272 256 246 247 247 246 247 246 248 253 253 250
261 256 249 242 239 238 236 235 236 238 237 235 234 232 228 225 221 215 204 198 204 209 208 207 206 202 201 205 212 215 214 214 214 215 217 219 221 223 227 228 229 229 230 228 225 222 222 225 227 226 224 222 221 221 220 218 215 216 219 219 217 219 225 230 231 232 237 245 251 258 265 267 266 269 265 253 244 242 244 244 243 245 248 250 252
263 257 252 247 243 240 238 235 235 237 236 233 232 232 228 223 219 214 206 202 207 211 208 207 206 201 199 200 204 211 213 213 215 218 220 220 218 219 223 227 228 228 230 228 223 219 219 221 225 225 223 220 218 218 217 217 216 215 220 221 217 218 223 226 230 234 238 244 250 257 267 272 270 265 259 252 242 237 240 243 244 245 248 251 254
269 259 254 250 246 243 241 239 235 235 235 231 229 230 226 218 213 211 207 206 210 212 210 209 208 205 200 195 199 209 214 215 217 220 223 223 221 221 224 226 225 225 227 226 224 222 219 220 222 221 219 218 219 221 217 214 212 210 216 220 217 217 219 222 229 237 242 249 253 260 270 276 279 274 265 260 256 252 254 255 254 254 257 261 260
274 261 253 251 250 248 246 242 237 235 232 227 224 225 221 214 209 208 208 210 212 211 210 212 212 209 202 194 200 213 217 219 221 221 223 225 226 226 225 226 224 224 225 223 224 226 223 221 220 218 216 217 220 224 219 212 208 205 211 218 219 220 221 221 227 235 242 249 253 261 268 270 274 274 271 268 265 263 265 267 268 269 270 272 270
292 267 256 252 249 249 248 243 237 233 228 224 223 222 217 211 209 207 207 210 213 211 210 213 214 213 206 198 203 217 224 226 227 227 227 228 230 230 228 227 225 224 225 224 224 226 224 223 221 218 217 217 219 222 217 212 208 206 211 219 222 226 227 226 228 233 240 247 252 257 262 266 269 269 269 270 270 269 269 270 271 272 272 274 275
325 300 275 260 257 256 249 242 238 234 226 221 221 221 216 208 205 205 206 210 213 212 210 212 214 214 210 205 210 220 228 232 232 234 235 234 235 235 233 234 231 227 230 229 226 223 222 222 220 218 218 219 219 219 216 213 212 212 215 221 225 229 232 230 232 237 243 249 253 255 258 262 266 266 267 268 270 272 273 273 274 275 275 276 276
336 329 311 285 278 268 247 234 233 236 231 223 222 222 215 207 204 204 206 209 212 212 210 211 215 215 211 208 216 224 230 234 236 238 241 242 242 240 239 240 238 233 232 232 225 216 214 218 220 218 218 219 219 219 217 216 217 217 218 222 227 232 236 235 237 243 247 249 251 253 254 255 258 260 261 262 264 266 268 270 272 273 273 273 274
337 341 334 315 298 255 236 228 224 230 228 221 219 218 213 208 207 207 207 208 211 212 210 211 216 218 215 213 219 228 233 235 237 239 243 246 247 245 243 243 241 236 233 232 226 213 206 211 216 216 215 215 217 219 220 220 221 221 220 221 225 231 235 237 240 244 248 250 252 253 253 254 255 257 258 260 261 263 265 267 269 270 271 272 273
334 342 336 321 307 257 247 239 221 222 227 218 212 213 212 208 208 208 208 208 211 212 211 213 218 221 222 222 225 232 236 236 237 239 241 245 248 247 244 243 241 235 232 233 231 221 208 205 207 209 211 213 215 217 219 220 221 223 223 224 226 229 232 235 238 242 246 249 252 254 256 257 257 257 258 260 261 263 265 267 268 270 271 273 274
329 336 335 308 286 275 271 255 223 217 222 215 208 210 210 206 206 210 211 211 214 215 213 216 221 225 229 231 231 234 237 237 236 236 237 243 246 244 241 239 234 229 226 226 228 225 215 205 204 207 211 215 217 219 222 223 224 227 229 231 233 236 238 239 241 244 247 249 251 254 256 258 260 261 262 263 265 266 268 269 270 271 272 273 274
327 331 330 292 261 253 257 245 226 219 218 215 212 212 208 205 206 211 211 212 216 217 217 222 227 230 233 233 232 235 237 236 236 235 236 239 239 238 236 231 225 220 217 215 218 221 219 213 212 214 216 219 222 226 230 232 233 234 236 238 240 243 245 247 249 250 252 254 255 257 258 260 262 263 265 266 268 270 271 272 273 273 273 274 275
326 325 319 288 248 218 205 202 201 202 207 213 216 213 206 204 205 209 211 215 220 222 224 228 232 237 238 233 230 233 235 233 233 234 234 234 232 230 229 224 219 217 215 212 211 213 216 216 217 221 224 227 229 232 235 238 239 242 245 248 251 254 256 258 259 260 262 263 264 266 267 268 269 269 270 271 272 273 274 275 276 276 276 276 276
325 325 315 291 260 220 193 179 174 177 187 199 210 213 209 208 211 214 217 219 223 227 230 234 239 243 239 230 227 230 232 230 230 229 228 226 222 219 218 216 216 217 216 215 214 213 215 217 219 224 229 233 236 240 243 246 249 252 256 258 260 262 263 264 265 266 267 269 270 271 272 273 274 274 275 275 275 275 275 275 276 277 277 277 277
316 321 320 303 278 253 226 203 183 174 179 189 200 208 210 212 215 219 222 224 228 231 233 237 239 234 224 220 222 225 226 224 222 219 217 214 211 212 212 212 214 216 217 219 220 219 218 220 223 227 231 236 241 245 249 253 255 256 258 259 260 261 263 265 267 268 269 270 271 272 272 273 274 274 274 274 274 274 274 274 275 275 276 277 277
305 308 311 308 295 277 257 239 226 211 200 197 197 202 207 212 217 221 223 224 228 231 230 229 225 216 211 214 217 218 218 219 217 216 215 213 213 213 212 210 213 217 219 221 222 222 222 223 226 230 235 238 242 245 248 251 254 256 258 260 262 264 266 268 269 270 271 272 273 274 274 274 274 274 274 274 274 275 275 275 275 276 276 277 277
293 295 299 301 299 292 276 261 250 240 231 221 212 208 208 210 213 213 210 207 211 218 224 223 217 210 209 210 212 216 219 220 218 217 216 214 212 211 210 211 215 220 223 225 227 228 228 229 231 234 239 242 245 249 252 256 258 260 262 264 265 267 268 269 271 272 273 274 274 275 275 275 275 275 275 276 276 276 277 277 277 278 278 278 279
283 286 290 296 303 305 300 290 269 251 244 239 232 224 217 214 214 212 210 208 207 212 219 221 217 216 218 219 220 222 220 216 213 212 210 208 207 209 211 215 217 218 220 224 228 230 231 234 238 243 248 253 256 259 261 263 265 266 267 268 269 270 271 272 273 274 275 276 276 277 278 278 279 279 280 280 280 280 280 281 281 281 281 281 281
269 274 278 284 299 305 303 302 290 265 253 248 244 240 233 231 231 229 227 227 221 217 220 223 222 222 224 223 221 219 214 211 211 210 208 208 208 210 212 215 215 215 218 223 229 234 239 245 251 255 259 262 265 267 268 269 270 271 271 273 273 274 275 276 277 278 279 280 281 282 283 284 284 284 284 285 285 284 284 284 284 285 285 284 284
241 243 239 235 258 301 322 327 306 269 249 242 243 243 238 235 233 227 220 217 213 211 214 217 217 216 215 214 214 213 211 210 210 207 204 203 203 204 207 210 214 220 227 233 239 244 249 253 257 260 262 265 267 269 270 272 273 274 276 277 279 280 281 282 283 283 284 285 286 287 288 288 288 287 287 287 288 288 288 288 288 288 288 287 287
238 235 211 181 175 171 145 115 118 152 173 192 211 222 224 224 222 215 208 204 200 197 198 200 203 205 206 206 208 208 206 204 202 201 201 200 201 203 207 212 219 227 236 242 246 250 253 257 260 263 265 267 269 270 272 274 276 277 279 281 282 283 284 284 285 286 287 288 289 290 290 291 291 291 292 292 293 293 294 294 294 294 293 292 291
248 252 253 227 182 190 212 213 198 185 181 180 186 196 201 205 206 205 204 201 196 190 187 186 188 193 199 202 204 203 203 204 205 206 209 210 212 213 217 225 234 241 247 252 255 259 262 264 266 268 270 271 273 274 275 277 278 280 281 281 281 282 284 285 287 289 291 292 293 294 294 295 296 296 296 296 297 297 296 297 297 296 296 295 294
271 264 262 261 243 213 238 245 240 233 227 220 215 214 215 216 215 213 213 210 203 196 190 183 180 185 196 206 212 213 212 211 212 215 218 220 221 223 228 238 247 254 259 262 266 269 270 271 271 271 271 271 272 273 274 276 278 279 279 279 281 283 286 288 290 292 293 294 295 297 297 298 298 298 298 298 298 297 297 296 296 296 297 296 295
292 292 291 295 297 283 261 256 256 256 253 250 242 233 228 230 229 227 227 227 224 219 211 201 193 190 193 202 213 220 221 220 219 221 224 228 232 237 244 251 257 261 264 266 268 270 270 271 272 271 271 271 270 271 272 273 275 277 278 280 282 285 288 291 293 294 296 297 298 299 299 299 299 299 299 299 299 299 299 299 299 300 299 298 297
308 315 315 312 307 301 289 275 270 267 263 262 259 250 241 236 234 232 229 229 231 231 229 226 225 221 217 215 218 222 226 230 233 236 240 244 247 250 254 257 258 260 262 263 265 267 267 268 268 268 268 269 269 271 272 273 276 278 280 283 286 289 291 294 295 296 297 298 299 299 299 300 300 301 302 303 304 304 304 303 303 303 303 302 300
326 317 304 298 299 300 291 281 278 276 270 266 264 260 256 253 251 249 247 245 247 249 249 249 249 251 252 249 243 240 240 242 244 247 250 252 253 254 255 255 255 256 257 258 260 261 261 262 263 264 266 267 269 271 274 276 279 282 284 287 290 292 294 295 296 297 297 298 299 300 301 303 305 305 306 306 306 306 306 306 306 306 306 305 304
304 292 284 283 284 281 277 276 277 275 270 267 266 265 263 262 261 260 257 254 254 255 257 260 260 260 259 258 257 256 255 254 253 252 251 250 250 251 252 253 252 252 252 252 253 254 256 258 260 262 263 265 268 273 277 281 284 286 288 291 292 294 296 297 298 299 301 302 304 305 306 307 307 307 307 308 308 309 310 310 310 309 307 306 305
283 277 275 273 266 265 269 271 272 269 267 264 263 264 267 267 267 267 266 265 264 262 261 260 259 256 254 254 255 257 258 257 257 256 254 251 249 248 249 251 252 251 251 253 255 257 258 258 258 259 262 267 273 279 283 286 288 290 292 294 295 297 298 299 301 303 305 306 306 306 307 308 308 310 313 314 315 315 314 312 310 308 307 306 304
271 270 272 271 265 263 266 264 259 258 261 262 261 261 262 263 264 266 267 268 268 265 261 257 255 254 253 254 254 255 256 256 255 255 255 252 250 249 250 251 254 256 256 257 258 258 258 258 259 263 269 274 279 283 285 288 290 291 293 295 296 298 300 302 303 305 305 306 306 308 311 314 317 319 319 318 317 315 312 310 308 307 306 305 304
266 266 270 273 272 269 267 264 260 258 260 262 264 266 266 266 264 261 260 260 258 257 257 255 254 255 256 256 255 255 255 255 254 254 253 251 249 248 248 250 254 257 257 254 252 253 255 260 265 270 276 280 283 285 286 287 288 289 291 293 295 298 300 302 303 304 305 308 312 316 319 321 321 320 318 315 313 311 309 309 308 307 306 306 303
272 269 268 271 272 269 267 269 271 269 265 263 260 259 262 265 266 266 265 262 257 252 249 249 251 254 253 253 253 254 254 252 251 249 248 245 244 244 245 247 251 253 251 247 247 252 259 265 270 275 279 281 282 283 283 284 285 288 292 295 297 299 301 302 304 307 311 316 319 320 319 319 318 316 314 312 311 311 311 311 311 309 306 303 300
276 275 274 273 272 270 269 272 277 276 270 264 257 253 254 258 261 264 266 265 262 254 247 245 248 250 248 246 246 248 247 243 241 243 244 244 246 248 248 246 246 247 248 249 252 258 264 268 271 273 275 276 277 279 282 285 289 293 296 298 299 301 303 306 310 314 317 319 318 317 316 316 316 317 317 317 318 317 317 316 315 312 306 300 295
264 274 278 277 278 277 277 278 275 269 265 262 258 256 258 260 263 264 262 260 258 254 250 249 248 245 241 242 243 243 239 233 233 238 243 246 248 250 249 245 244 247 252 256 260 263 266 268 269 270 273 277 281 284 288 291 295 297 299 300 302 305 308 311 315 316 317 317 317 317 318 318 319 322 323 324 324 323 321 320 319 316 310 303 296
242 261 272 274 281 292 297 296 289 281 277 273 267 261 260 260 263 265 264 261 258 255 253 253 251 244 240 241 241 239 234 228 228 236 243 245 246 248 250 250 252 255 257 259 261 263 264 267 271 276 280 284 288 291 294 297 299 301 302 304 307 310 312 314 316 317 318 319 320 322 323 322 323 325 327 327 326 326 327 327 326 322 318 311 303
231 248 261 268 282 306 321 319 307 295 289 286 279 271 266 263 262 264 266 266 265 263 260 258 256 251 248 247 245 241 235 229 228 237 246 250 249 250 253 255 257 258 257 256 257 260 266 272 279 283 287 291 293 295 297 299 300 301 303 305 308 311 313 315 318 320 323 325 326 327 328 327 328 330 330 330 331 334 336 338 338 336 332 324 313
249 251 259 272 288 304 326 336 326 307 297 294 288 280 277 273 269 267 269 269 268 267 266 263 260 258 257 256 252 246 239 232 229 236 245 250 251 252 254 254 252 251 251 254 260 268 275 282 286 289 291 294 296 297 298 298 297 299 301 304 307 311 314 318 323 327 329 330 331 331 331 331 332 333 334 335 339 344 347 349 351 351 348 341 331
276 267 272 290 308 321 339 348 341 323 311 308 300 289 283 279 275 272 271 270 269 268 267 265 260 256 255 253 251 247 243 236 232 233 239 245 248 248 247 243 241 243 250 260 269 277 284 288 291 293 296 298 300 301 300 299 299 301 305 308 310 314 319 323 327 330 333 333 333 333 333 333 335 337 339 344 349 353 355 359 0 359 356 353 350
289 277 276 292 314 327 328 333 335 331 325 321 312 300 290 284 281 278 274 272 271 268 265 262 257 249 244 243 243 241 239 237 235 234 235 236 236 234 231 231 236 245 256 265 273 281 290 296 303 307 308 308 307 305 302 301 304 307 311 313 315 319 323 327 330 332 333 333 334 334 334 335 339 343 347 351 355 357 359 2 2 360 358 356 354
296 288 286 292 296 287 287 304 316 322 326 328 321 309 297 289 284 282 280 277 274 270 266 263 257 246 237 234 236 236 236 237 237 233 227 221 218 217 221 228 236 245 254 267 284 301 314 326 332 331 321 313 306 302 299 301 305 309 312 317 321 324 327 329 331 332 332 333 334 333 334 338 344 349 352 355 358 359 360 1 359 358 358 357 355
287 286 287 287 280 273 279 298 309 311 318 326 326 319 308 296 286 282 281 281 278 273 267 261 254 246 236 230 231 232 232 230 224 217 210 206 204 204 209 217 226 240 262 295 318 327 335 342 343 334 322 311 304 302 300 301 304 308 315 322 327 329 328 329 330 331 332 333 333 332 334 339 347 352 355 358 1 1 360 358 356 355 355 356 359
277 274 275 276 276 278 287 299 303 305 313 318 322 325 325 315 298 286 282 281 280 277 268 257 250 243 234 224 220 219 214 207 201 198 195 191 187 182 181 188 202 236 299 327 328 329 335 337 331 322 317 312 308 307 305 304 305 312 319 325 328 329 328 328 329 329 331 331 331 332 335 340 346 353 359 4 6 6 4 2 360 358 356 354 356
279 273 271 275 281 288 293 291 287 293 302 307 313 322 328 322 310 296 285 280 281 281 273 258 245 234 222 210 205 200 193 187 186 184 178 172 166 156 147 143 132 117 107 48 355 348 345 337 327 320 317 315 313 311 310 309 311 316 320 324 326 326 325 326 326 327 327 327 329 332 337 342 348 356 4 7 7 8 8 6 4 3 0 355 352
288 278 274 277 283 290 293 284 279 284 291 298 307 315 317 316 312 306 293 281 278 276 263 247 234 221 207 196 191 188 183 178 175 171 163 156 150 140 134 129 123 118 114 98 67 42 13 350 338 332 328 324 320 317 314 313 313 316 318 320 322 323 323 325 325 325 324 326 329 334 341 347 352 359 5 5 3 3 5 6 4 1 359 356 352
298 287 281 279 280 280 277 274 278 285 290 295 298 299 301 305 312 313 296 275 262 251 238 228 219 210 199 188 183 183 181 173 167 163 159 154 149 143 138 133 126 118 108 92 75 57 36 13 359 349 341 334 329 324 321 318 317 316 316 317 319 320 323 326 326 325 325 328 332 337 344 351 354 358 2 1 356 353 357 2 0 355 353 354 351
Height
3101 3103 3105 3107 3108 3109 3109 3108 3107 3106 3106 3106 3105 3105 3107 3107 3109 3113 3118 3121 3123 3126 3127 3129 3130 3131 3132 3132 3133 3133 3134 3135 3135 3136 3137 3138 3139 3141 3142 3143 3144 3144 3146 3146 3146 3147 3148 3149 3150 3150 3150 3151 3152 3152 3152 3153 3154 3154 3155 3156 3157 3159 3161 3162 3162 3163 3163 3163 3163 3163 3163 3163 3163 3164 3164 3164 3164 3164 3164 3164 3164 3164 3164 3165 3165
3100 3102 3103 3104 3106 3107 3107 3107 3105 3104 3104 3104 3105 3108 3110 3110 3108 3111 3115 3119 3121 3124 3125 3127 3128 3129 3130 3131 3131 3132 3133 3134 3135 3135 3136 3137 3138 3139 3140 3141 3142 3143 3144 3145 3145 3146 3147 3148 3148 3149 3149 3150 3150 3151 3151 3152 3152 3153 3154 3155 3156 3158 3159 3161 3161 3162 3162 3162 3162 3162 3162 3162 3162 3163 3163 3163 3163 3163 3163 3163 3163 3163 3164 3164 3165
3099 3100 3101 3102 3103 3104 3104 3104 3103 3102 3102 3102 3104 3107 3109 3109 3108 3109 3113 3117 3119 3121 3124 3125 3127 3127 3129 3130 3130 3131 3132 3133 3134 3134 3135 3136 3136 3137 3138 3139 3140 3142 3142 3143 3144 3145 3146 3147 3147 3147 3148 3148 3149 3149 3150 3150 3151 3152 3153 3154 3155 3156 3158 3159 3159 3160 3161 3161 3161 3162 3161 3161 3161 3161 3161 3161 3161 3162 3162 3162 3162 3162 3163 3163 3164
3097 3097 3098 3099 3100 3100 3101 3101 3101 3101 3101 3100 3102 3106 3107 3107 3108 3108 3112 3115 3117 3120 3122 3124 3125 3126 3127 3128 3129 3130 3131 3132 3133 3134 3134 3135 3135 3136 3137 3138 3139 3140 3141 3142 3142 3144 3145 3146 3146 3146 3147 3147 3147 3148 3149 3149 3150 3151 3151 3152 3153 3155 3156 3157 3158 3159 3159 3160 3160 3161 3160 3160 3160 3160 3160 3160 3160 3160 3160 3160 3161 3161 3161 3162 3162
3095 3096 3097 3097 3097 3097 3098 3098 3098 3099 3100 3099 3101 3105 3106 3107 3107 3107 3110 3114 3115 3119 3121 3122 3124 3125 3126 3127 3128 3129 3130 3131 3132 3133 3133 3134 3134 3135 3136 3137 3138 3139 3140 3140 3141 3142 3143 3144 3144 3145 3145 3146 3146 3147 3148 3148 3149 3149 3150 3150 3152 3153 3154 3156 3157 3158 3158 3159 3159 3159 3159 3159 3159 3158 3158 3158 3158 3158 3159 3159 3159 3160 3160 3161 3161
3094 3097 3098 3097 3096 3096 3095 3096 3097 3097 3097 3097 3100 3103 3104 3106 3106 3106 3109 3112 3115 3118 3120 3121 3123 3124 3125 3126 3127 3128 3129 3130 3131 3131 3132 3132 3133 3134 3135 3136 3136 3137 3138 3139 3140 3141 3142 3142 3143 3143 3144 3144 3145 3146 3147 3147 3148 3148 3149 3149 3150 3151 3153 3154 3156 3157 3157 3157 3157 3158 3158 3158 3157 3157 3156 3156 3157 3157 3157 3157 3158 3158 3159 3159 3160
3094 3097 3097 3097 3095 3093 3093 3094 3095 3095 3094 3095 3097 3099 3101 3104 3105 3106 3108 3111 3114 3117 3118 3120 3121 3123 3124 3124 3125 3126 3127 3128 3129 3130 3130 3131 3132 3133 3133 3134 3134 3135 3136 3137 3139 3140 3140 3141 3141 3142 3142 3143 3144 3144 3145 3146 3147 3147 3148 3148 3149 3150 3151 3152 3154 3155 3156 3156 3156 3156 3156 3156 3156 3155 3155 3154 3154 3155 3155 3156 3156 3157 3158 3158 3158
3092 3093 3094 3094 3092 3090 3090 3091 3091 3091 3091 3093 3094 3096 3099 3101 3103 3106 3108 3110 3112 3114 3116 3119 3120 3121 3122 3123 3124 3125 3126 3127 3128 3129 3129 3130 3130 3131 3132 3132 3133 3134 3134 3136 3137 3138 3138 3139 3139 3140 3141 3142 3142 3143 3144 3144 3145 3146 3147 3147 3148 3149 3150 3151 3152 3154 3154 3154 3154 3155 3155 3154 3154 3154 3153 3153 3153 3154 3154 3155 3155 3156 3156 3156 3157
3089 3089 3089 3090 3089 3088 3087 3088 3088 3087 3088 3090 3091 3093 3096 3098 3101 3104 3107 3108 3110 3111 3115 3118 3119 3120 3121 3122 3123 3124 3125 3126 3127 3127 3128 3128 3129 3130 3130 3131 3131 3132 3133 3134 3135 3136 3136 3137 3138 3138 3139 3140 3141 3142 3142 3143 3144 3145 3146 3146 3147 3148 3149 3150 3151 3152 3152 3153 3153 3153 3153 3153 3153 3153 3152 3152 3153 3153 3153 3153 3154 3154 3154 3154 3155
3085 3085 3085 3085 3085 3085 3083 3084 3085 3084 3084 3087 3089 3091 3093 3096 3099 3102 3104 3106 3108 3110 3113 3116 3118 3119 3120 3121 3122 3123 3124 3124 3125 3126 3127 3127 3128 3128 3128 3129 3130 3130 3131 3132 3133 3134 3134 3135 3135 3136 3137 3138 3139 3139 3140 3141 3142 3143 3144 3145 3146 3147 3147 3148 3149 3150 3151 3151 3151 3151 3151 3151 3151 3151 3151 3151 3152 3152 3151 3152 3152 3152 3152 3152 3152
3081 3081 3081 3080 3081 3081 3079 3080 3082 3081 3081 3083 3086 3088 3090 3093 3096 3098 3100 3103 3106 3108 3111 3114 3116 3117 3118 3119 3121 3122 3122 3123 3124 3125 3125 3126 3126 3126 3127 3128 3128 3129 3129 3130 3131 3132 3132 3133 3133 3134 3135 3136 3137 3137 3137 3139 3140 3141 3142 3143 3144 3145 3146 3146 3147 3148 3148 3149 3149 3149 3149 3149 3149 3149 3149 3149 3149 3149 3149 3149 3150 3150 3149 3149 3150
3078 3077 3077 3077 3077 3077 3075 3076 3078 3078 3078 3080 3083 3085 3087 3090 3094 3096 3097 3101 3105 3107 3109 3111 3114 3115 3116 3117 3119 3120 3121 3122 3123 3123 3124 3124 3125 3125 3125 3126 3126 3127 3127 3128 3129 3130 3131 3131 3132 3132 3134 3135 3135 3136 3137 3138 3139 3140 3140 3141 3141 3143 3144 3145 3146 3146 3146 3146 3146 3147 3147 3147 3147 3147 3146 3146 3146 3147 3146 3146 3146 3146 3145 3145 3145
3075 3074 3074 3074 3074 3073 3071 3072 3074 3075 3075 3078 3080 3082 3084 3088 3092 3094 3095 3099 3103 3104 3106 3109 3111 3113 3114 3115 3117 3118 3120 3121 3121 3122 3122 3123 3123 3123 3123 3124 3124 3125 3125 3126 3127 3128 3129 3130 3131 3131 3132 3133 3134 3135 3136 3137 3138 3138 3139 3139 3140 3141 3142 3143 3144 3144 3144 3144 3145 3145 3145 3145 3145 3144 3144 3144 3143 3143 3143 3143 3143 3142 3142 3141 3141
3073 3072 3071 3071 3070 3070 3068 3069 3070 3071 3072 3075 3076 3078 3081 3085 3089 3091 3093 3097 3100 3102 3104 3106 3108 3110 3112 3113 3115 3116 3118 3119 3119 3120 3121 3121 3121 3121 3121 3122 3123 3124 3124 3124 3126 3127 3128 3128 3129 3130 3131 3132 3133 3134 3134 3135 3136 3137 3138 3138 3139 3139 3139 3140 3141 3142 3143 3143 3143 3143 3143 3143 3143 3142 3142 3141 3141 3140 3140 3140 3139 3139 3138 3138 3138
3071 3069 3068 3067 3067 3066 3066 3067 3068 3068 3069 3071 3073 3076 3079 3082 3086 3088 3091 3094 3098 3100 3102 3104 3105 3107 3109 3111 3112 3114 3115 3117 3117 3118 3118 3119 3120 3120 3120 3120 3121 3122 3123 3123 3124 3125 3126 3127 3128 3129 3130 3130 3131 3132 3133 3133 3134 3135 3137 3137 3138 3138 3138 3139 3139 3140 3141 3141 3141 3141 3141 3141 3141 3140 3140 3139 3138 3138 3137 3137 3137 3136 3135 3134 3134
3070 3068 3066 3065 3065 3065 3065 3065 3066 3067 3067 3069 3071 3074 3077 3080 3083 3085 3088 3091 3095 3097 3099 3101 3102 3104 3106 3108 3110 3112 3113 3114 3115 3116 3116 3117 3117 3118 3119 3119 3119 3121 3121 3122 3123 3124 3124 3125 3126 3127 3128 3128 3129 3130 3131 3131 3132 3133 3135 3135 3136 3137 3137 3137 3138 3138 3139 3139 3139 3139 3138 3138 3138 3138 3137 3136 3135 3134 3134 3134 3134 3133 3131 3130 3130
3068 3067 3065 3064 3065 3065 3065 3064 3065 3066 3066 3068 3070 3072 3075 3078 3080 3082 3085 3088 3091 3094 3096 3097 3099 3101 3103 3105 3107 3109 3111 3112 3113 3113 3114 3115 3115 3116 3117 3117 3118 3118 3119 3120 3121 3122 3123 3124 3124 3125 3126 3126 3127 3128 3129 3129 3130 3131 3132 3133 3133 3134 3135 3135 3136 3136 3136 3136 3136 3136 3135 3135 3135 3134 3133 3132 3131 3131 3130 3130 3130 3128 3127 3125 3125
3067 3066 3065 3064 3064 3064 3063 3063 3064 3065 3066 3067 3069 3071 3074 3076 3078 3080 3083 3086 3089 3091 3093 3094 3096 3098 3100 3102 3104 3106 3107 3109 3110 3111 3112 3112 3113 3113 3114 3115 3116 3116 3117 3118 3119 3120 3121 3122 3123 3123 3124 3125 3125 3126 3127 3128 3129 3129 3130 3131 3131 3132 3132 3133 3133 3133 3134 3134 3133 3133 3132 3131 3131 3130 3129 3129 3128 3127 3126 3126 3125 3124 3123 3121 3120
3067 3066 3065 3064 3063 3063 3062 3062 3062 3063 3065 3066 3068 3070 3072 3074 3077 3079 3082 3084 3086 3088 3090 3091 3093 3095 3097 3099 3101 3102 3104 3105 3107 3108 3109 3109 3110 3111 3112 3113 3113 3114 3115 3116 3118 3118 3119 3120 3121 3121 3122 3122 3123 3124 3125 3126 3126 3127 3128 3128 3128 3129 3129 3130 3130 3131 3130 3130 3130 3130 3129 3128 3128 3127 3126 3125 3124 3123 3122 3121 3120 3120 3119 3117 3116
3068 3067 3066 3065 3064 3063 3063 3063 3062 3062 3063 3065 3066 3068 3070 3072 3075 3077 3080 3081 3083 3085 3087 3088 3090 3092 3094 3095 3097 3099 3101 3102 3103 3104 3105 3106 3107 3108 3109 3111 3111 3112 3113 3114 3115 3116 3117 3117 3118 3118 3118 3119 3120 3121 3122 3123 3124 3124 3125 3125 3126 3126 3126 3127 3127 3127 3127 3127 3126 3126 3126 3125 3124 3124 3123 3122 3121 3120 3118 3117 3115 3114 3113 3112 3111
3068 3068 3067 3066 3066 3065 3065 3064 3063 3061 3062 3063 3064 3066 3068 3071 3073 3075 3077 3078 3080 3082 3083 3085 3086 3088 3090 3091 3093 3096 3097 3099 3100 3100 3101 3102 3104 3105 3107 3108 3109 3111 3111 3112 3113 3114 3114 3115 3115 3116 3116 3116 3117 3118 3119 3120 3121 3122 3122 3123 3123 3123 3123 3123 3123 3124 3124 3123 3123 3122 3121 3121 3120 3119 3118 3117 3116 3115 3114 3112 3111 3109 3107 3106 3105
3068 3068 3068 3067 3067 3067 3067 3067 3065 3064 3063 3064 3065 3066 3067 3069 3071 3073 3074 3076 3078 3079 3081 3082 3083 3085 3086 3088 3090 3092 3094 3095 3095 3096 3097 3098 3100 3101 3103 3105 3107 3108 3109 3110 3110 3111 3112 3113 3113 3113 3114 3115 3116 3117 3118 3118 3119 3119 3120 3120 3120 3120 3120 3120 3120 3120 3119 3119 3118 3118 3117 3116 3115 3114 3113 3112 3111 3110 3108 3107 3105 3104 3102 3100 3099
3068 3067 3067 3067 3067 3067 3067 3067 3067 3067 3066 3066 3066 3066 3066 3067 3069 3070 3072 3073 3075 3076 3077 3079 3080 3081 3083 3084 3086 3088 3090 3091 3091 3092 3093 3094 3095 3097 3099 3102 3104 3105 3106 3107 3108 3109 3109 3110 3110 3111 3112 3113 3114 3115 3115 3116 3116 3116 3116 3116 3116 3116 3116 3116 3116 3115 3114 3114 3113 3113 3112 3111 3110 3109 3108 3107 3105 3104 3102 3100 3099 3098 3096 3095 3093
3067 3066 3066 3066 3066 3066 3066 3066 3066 3067 3067 3067 3066 3066 3065 3066 3067 3069 3070 3071 3072 3073 3074 3075 3076 3078 3079 3081 3083 3085 3086 3088 3089 3090 3090 3091 3092 3094 3096 3098 3100 3102 3103 3104 3105 3106 3106 3107 3108 3109 3109 3110 3111 3111 3112 3112 3113 3113 3113 3113 3113 3112 3112 3112 3111 3110 3110 3109 3108 3107 3107 3106 3105 3104 3102 3101 3099 3098 3096 3094 3092 3091 3090 3089 3087
3067 3066 3065 3065 3065 3065 3065 3065 3065 3065 3066 3067 3067 3067 3066 3066 3067 3068 3069 3069 3070 3070 3071 3072 3073 3075 3077 3079 3081 3082 3083 3085 3086 3087 3088 3089 3090 3092 3094 3095 3097 3098 3100 3101 3102 3103 3103 3104 3105 3105 3106 3107 3107 3108 3109 3109 3109 3109 3109 3109 3108 3108 3107 3107 3106 3106 3105 3104 3103 3102 3101 3100 3099 3097 3096 3095 3093 3091 3090 3088 3086 3085 3084 3083 3081
3067 3066 3065 3065 3065 3065 3065 3065 3065 3065 3065 3066 3066 3066 3066 3066 3066 3067 3068 3068 3069 3070 3070 3071 3071 3073 3075 3077 3078 3079 3081 3082 3083 3084 3086 3086 3088 3089 3091 3092 3093 3095 3096 3098 3099 3100 3100 3101 3101 3102 3103 3104 3104 3104 3104 3104 3104 3104 3104 3104 3103 3103 3102 3102 3101 3100 3100 3099 3098 3097 3096 3095 3093 3092 3090 3089 3087 3085 3084 3083 3081 3079 3078 3077 3075
3067 3066 3065 3065 3065 3065 3065 3065 3065 3065 3065 3065 3065 3066 3066 3066 3066 3066 3066 3066 3067 3068 3069 3069 3070 3072 3073 3074 3076 3078 3079 3080 3081 3082 3083 3083 3084 3086 3087 3089 3090 3092 3094 3095 3096 3097 3098 3098 3099 3100 3100 3100 3100 3100 3100 3100 3100 3100 3100 3099 3099 3098 3097 3097 3096 3095 3095 3094 3093 3092 3090 3089 3088 3086 3085 3084 3082 3080 3079 3077 3076 3074 3072 3071 3069
3068 3067 3066 3065 3065 3065 3065 3065 3065 3065 3065 3065 3066 3066 3066 3066 3066 3066 3066 3066 3066 3067 3068 3069 3070 3071 3072 3073 3075 3076 3078 3079 3080 3081 3081 3081 3082 3084 3085 3087 3088 3090 3092 3094 3095 3095 3096 3096 3097 3097 3097 3097 3097 3097 3096 3096 3096 3096 3096 3095 3095 3094 3093 3093 3092 3091 3090 3089 3088 3087 3086 3085 3083 3082 3080 3079 3077 3076 3074 3072 3070 3068 3066 3065 3064
3068 3067 3067 3066 3066 3066 3066 3066 3066 3066 3066 3065 3066 3066 3067 3067 3067 3067 3067 3067 3066 3067 3067 3068 3069 3070 3072 3073 3074 3075 3076 3077 3078 3079 3080 3080 3081 3082 3084 3085 3087 3089 3090 3091 3092 3093 3093 3094 3094 3094 3094 3094 3093 3093 3092 3092 3092 3092 3092 3092 3091 3091 3090 3089 3088 3087 3086 3085 3084 3083 3082 3080 3079 3077 3076 3074 3072 3071 3069 3067 3065 3063 3061 3059 3057
3068 3067 3067 3066 3066 3066 3066 3066 3066 3066 3065 3065 3065 3066 3066 3066 3066 3066 3067 3067 3066 3067 3067 3067 3068 3069 3071 3072 3073 3074 3075 3076 3077 3078 3079 3080 3081 3081 3083 3084 3086 3087 3088 3089 3089 3089 3090 3090 3090 3090 3090 3090 3090 3090 3089 3089 3089 3089 3089 3089 3088 3087 3086 3086 3085 3084 3083 3081 3080 3079 3078 3076 3074 3073 3071 3069 3068 3066 3064 3062 3060 3058 3056 3054 3052
3068 3067 3067 3067 3066 3066 3066 3066 3066 3066 3066 3065 3065 3065 3065 3065 3066 3066 3066 3066 3066 3066 3067 3067 3068 3069 3070 3071 3072 3074 3075 3076 3077 3078 3079 3079 3080 3081 3082 3083 3084 3085 3085 3086 3086 3086 3086 3087 3087 3087 3087 3087 3087 3087 3087 3087 3087 3086 3086 3085 3085 3084 3083 3082 3081 3080 3079 3078 3077 3075 3074 3072 3070 3068 3067 3065 3063 3061 3059 3057 3055 3053 3051 3050 3048
3068 3067 3067 3066 3066 3066 3066 3065 3065 3065 3065 3065 3065 3065 3065 3065 3065 3065 3065 3066 3066 3066 3067 3067 3068 3069 3070 3071 3072 3073 3074 3075 3076 3077 3077 3078 3079 3080 3080 3081 3082 3082 3083 3083 3083 3084 3084 3084 3084 3084 3084 3084 3084 3084 3084 3084 3083 3083 3083 3082 3082 3081 3080 3079 3078 3077 3076 3075 3073 3072 3070 3068 3066 3064 3062 3060 3058 3056 3054 3052 3050 3048 3047 3045 3043
3068 3067 3066 3066 3065 3065 3065 3065 3065 3065 3065 3065 3065 3065 3065 3065 3065 3065 3065 3066 3066 3066 3067 3067 3068 3069 3069 3070 3071 3072 3073 3074 3075 3076 3076 3077 3077 3078 3078 3079 3079 3080 3080 3081 3081 3081 3082 3082 3082 3081 3081 3081 3081 3081 3081 3081 3080 3080 3079 3079 3078 3078 3077 3076 3075 3074 3073 3071 3070 3068 3067 3065 3062 3060 3058 3056 3054 3052 3050 3048 3046 3044 3042 3040 3038
3067 3066 3066 3066 3065 3064 3064 3064 3064 3064 3064 3064 3064 3064 3064 3065 3065 3065 3065 3065 3065 3066 3067 3067 3068 3068 3068 3069 3070 3071 3072 3073 3073 3074 3075 3076 3076 3076 3076 3076 3076 3077 3078 3079 3079 3079 3079 3079 3079 3079 3079 3079 3079 3078 3078 3078 3078 3077 3076 3076 3075 3074 3073 3072 3071 3070 3069 3067 3066 3064 3062 3061 3059 3057 3055 3053 3051 3049 3046 3044 3042 3040 3038 3036 3034
3066 3065 3065 3065 3065 3064 3063 3063 3063 3062 3062 3062 3062 3063 3063 3063 3063 3064 3064 3064 3065 3065 3066 3066 3066 3066 3067 3067 3068 3069 3070 3071 3072 3073 3073 3074 3074 3073 3073 3073 3074 3075 3076 3076 3077 3077 3077 3076 3077 3077 3077 3076 3076 3076 3075 3075 3074 3074 3073 3072 3072 3071 3070 3070 3068 3067 3065 3064 3062 3061 3059 3057 3055 3054 3051 3049 3047 3045 3043 3041 3039 3037 3035 3033 3031
3065 3064 3064 3064 3064 3063 3062 3062 3061 3061 3060 3060 3061 3061 3062 3062 3062 3063 3063 3063 3063 3064 3064 3064 3064 3064 3065 3065 3066 3068 3069 3069 3070 3071 3071 3071 3071 3071 3071 3071 3071 3072 3073 3074 3074 3074 3074 3074 3074 3074 3074 3074 3074 3073 3073 3072 3072 3071 3071 3070 3070 3069 3068 3067 3065 3064 3063 3061 3060 3058 3056 3054 3052 3050 3048 3046 3044 3043 3041 3039 3037 3035 3032 3030 3028
3063 3063 3062 3063 3063 3062 3061 3061 3060 3060 3060 3059 3060 3060 3060 3061 3061 3061 3061 3061 3062 3062 3062 3062 3062 3062 3063 3063 3064 3066 3067 3068 3068 3069 3069 3069 3069 3069 3069 3069 3069 3070 3071 3072 3072 3072 3071 3072 3072 3072 3072 3071 3071 3071 3070 3070 3070 3070 3069 3068 3067 3066 3065 3064 3063 3061 3060 3058 3057 3055 3053 3051 3050 3048 3046 3045 3043 3040 3038 3036 3034 3032 3030 3028 3026
3061 3061 3061 3061 3061 3061 3060 3060 3060 3060 3059 3059 3059 3059 3059 3058 3059 3059 3059 3059 3060 3060 3060 3060 3061 3061 3061 3061 3063 3064 3065 3066 3067 3067 3067 3067 3066 3067 3067 3068 3068 3069 3069 3070 3070 3070 3070 3069 3069 3069 3069 3069 3069 3069 3069 3069 3068 3067 3067 3066 3065 3064 3063 3061 3060 3059 3057 3055 3054 3053 3051 3050 3048 3047 3045 3043 3040 3038 3036 3033 3031 3029 3027 3025 3024
3060 3060 3059 3059 3059 3059 3059 3059 3060 3059 3059 3058 3058 3057 3057 3057 3057 3057 3057 3057 3058 3058 3058 3058 3058 3059 3059 3060 3061 3062 3063 3064 3064 3064 3064 3064 3064 3064 3065 3066 3067 3067 3067 3067 3067 3067 3067 3067 3068 3068 3068 3068 3068 3067 3067 3066 3065 3064 3064 3063 3062 3061 3060 3059 3057 3056 3055 3054 3052 3051 3050 3048 3046 3044 3042 3040 3037 3035 3033 3030 3028 3026 3025 3023 3022
3059 3059 3058 3058 3058 3058 3058 3058 3058 3058 3057 3057 3057 3056 3056 3055 3055 3056 3056 3056 3056 3056 3056 3056 3056 3057 3057 3058 3059 3060 3061 3061 3062 3061 3061 3062 3063 3063 3064 3065 3065 3065 3065 3065 3065 3065 3065 3066 3066 3066 3066 3066 3065 3065 3064 3063 3062 3061 3061 3060 3059 3058 3057 3056 3055 3054 3053 3052 3051 3049 3047 3045 3043 3041 3039 3037 3034 3032 3030 3028 3026 3024 3022 3021 3019
3059 3058 3058 3057 3057 3057 3057 3057 3057 3056 3056 3056 3056 3055 3055 3054 3054 3054 3055 3054 3054 3054 3055 3055 3055 3055 3055 3056 3057 3058 3059 3059 3059 3059 3060 3061 3061 3062 3062 3062 3063 3063 3063 3063 3063 3064 3064 3064 3064 3064 3064 3063 3062 3062 3061 3060 3060 3059 3058 3058 3057 3056 3056 3055 3054 3053 3052 3050 3048 3046 3044 3042 3040 3038 3036 3034 3032 3030 3027 3025 3023 3022 3020 3019 3018
3058 3058 3058 3057 3057 3057 3057 3056 3056 3055 3054 3054 3053 3053 3053 3053 3053 3053 3053 3053 3053 3053 3053 3053 3053 3053 3053 3054 3055 3056 3057 3057 3057 3057 3058 3059 3060 3060 3060 3060 3061 3061 3061 3061 3062 3062 3062 3062 3062 3062 3061 3061 3060 3059 3059 3058 3058 3057 3057 3056 3055 3055 3054 3053 3052 3051 3049 3047 3046 3044 3042 3040 3038 3036 3034 3032 3030 3028 3026 3024 3022 3021 3019 3018 3017
3058 3058 3057 3057 3057 3057 3057 3056 3055 3054 3053 3052 3052 3051 3052 3052 3051 3051 3051 3051 3051 3051 3051 3052 3052 3051 3051 3052 3053 3054 3054 3055 3055 3056 3056 3057 3057 3058 3058 3059 3059 3059 3060 3060 3060 3060 3060 3060 3060 3059 3059 3059 3058 3058 3057 3057 3056 3056 3055 3055 3054 3054 3053 3051 3050 3048 3047 3045 3043 3041 3039 3037 3036 3034 3033 3031 3029 3027 3025 3023 3022 3020 3019 3017 3016
3058 3057 3057 3057 3057 3057 3056 3056 3055 3054 3052 3052 3051 3050 3050 3050 3050 3050 3049 3049 3049 3049 3049 3050 3050 3050 3050 3050 3050 3051 3052 3053 3054 3054 3055 3055 3056 3056 3057 3057 3057 3058 3058 3058 3058 3059 3059 3058 3058 3058 3057 3057 3056 3056 3055 3055 3055 3054 3054 3053 3053 3052 3051 3049 3048 3046 3044 3042 3041 3039 3038 3036 3035 3033 3032 3030 3028 3027 3025 3023 3022 3020 3019 3018 3017
3058 3057 3056 3056 3056 3056 3056 3055 3055 3054 3052 3051 3050 3050 3049 3049 3049 3048 3048 3048 3047 3047 3047 3048 3048 3048 3048 3049 3049 3049 3050 3051 3052 3053 3053 3054 3054 3055 3055 3056 3056 3056 3057 3057 3057 3057 3057 3057 3056 3056 3055 3055 3054 3054 3054 3054 3053 3053 3052 3051 3050 3050 3048 3047 3045 3044 3042 3041 3039 3038 3037 3035 3034 3032 3031 3030 3028 3026 3025 3023 3022 3020 3019 3018 3017
3057 3057 3056 3055 3055 3055 3055 3055 3054 3053 3052 3051 3050 3049 3049 3048 3048 3047 3047 3046 3046 3046 3046 3046 3046 3046 3047 3048 3048 3048 3049 3049 3050 3051 3052 3052 3053 3054 3054 3054 3055 3055 3055 3056 3056 3055 3055 3055 3054 3054 3054 3054 3053 3053 3053 3052 3052 3051 3051 3050 3049 3047 3046 3045 3043 3042 3040 3039 3038 3037 3036 3035 3034 3032 3031 3029 3028 3026 3025 3023 3022 3021 3020 3019 3018
3057 3056 3055 3054 3053 3053 3054 3054 3053 3052 3051 3050 3050 3049 3048 3047 3047 3047 3046 3045 3045 3045 3044 3044 3044 3045 3046 3046 3046 3046 3047 3048 3049 3050 3051 3051 3052 3053 3053 3053 3054 3054 3054 3054 3053 3053 3053 3053 3053 3053 3053 3053 3052 3052 3052 3051 3050 3050 3049 3048 3047 3045 3044 3043 3041 3040 3039 3038 3037 3036 3035 3034 3033 3032 3031 3029 3028 3026 3025 3024 3022 3021 3020 3019 3018
3056 3055 3054 3053 3052 3052 3052 3053 3052 3051 3050 3049 3049 3048 3047 3047 3046 3046 3045 3045 3044 3044 3043 3043 3043 3043 3044 3045 3045 3046 3046 3047 3048 3049 3050 3050 3051 3051 3052 3052 3052 3052 3052 3052 3052 3052 3052 3052 3052 3052 3052 3052 3051 3051 3050 3049 3049 3048 3047 3046 3045 3044 3042 3041 3040 3039 3038 3037 3037 3036 3035 3034 3033 3032 3030 3029 3028 3026 3025 3024 3023 3022 3021 3020 3019
3054 3053 3053 3052 3051 3050 3051 3051 3051 3050 3049 3048 3048 3047 3046 3046 3045 3044 3044 3044 3043 3043 3042 3042 3042 3042 3043 3044 3044 3045 3046 3047 3047 3048 3048 3049 3049 3050 3050 3050 3051 3051 3051 3051 3051 3051 3051 3051 3051 3051 3050 3050 3049 3049 3048 3048 3047 3046 3045 3044 3043 3042 3041 3040 3039 3039 3038 3037 3036 3035 3034 3033 3033 3031 3030 3029 3028 3027 3026 3024 3023 3022 3021 3020 3019
3052 3052 3051 3050 3049 3049 3049 3049 3049 3049 3048 3047 3047 3046 3046 3045 3044 3044 3043 3043 3042 3042 3042 3042 3042 3042 3042 3043 3043 3044 3045 3045 3046 3047 3047 3048 3048 3049 3049 3050 3050 3050 3051 3051 3051 3051 3050 3050 3050 3049 3049 3048 3048 3047 3047 3046 3045 3044 3043 3043 3042 3041 3040 3039 3038 3038 3037 3036 3036 3035 3034 3033 3032 3031 3030 3029 3028 3027 3026 3025 3024 3023 3022 3021 3020
3050 3050 3049 3049 3048 3048 3047 3047 3046 3046 3046 3046 3045 3045 3044 3044 3044 3043 3043 3042 3042 3041 3041 3041 3041 3042 3042 3043 3043 3043 3044 3045 3045 3046 3047 3047 3048 3049 3049 3050 3050 3050 3050 3050 3050 3050 3049 3049 3048 3048 3047 3047 3046 3046 3045 3044 3044 3043 3042 3041 3041 3040 3039 3038 3038 3037 3036 3036 3035 3034 3033 3033 3032 3031 3030 3029 3028 3027 3026 3025 3024 3023 3022 3021 3020